| time (UTC) | temp F | wind direction | speed knots | gust knots | rain 1hr in | rain 24hr in | rain mn in | humidity % | barometer mb |
| 20260508010050 | 55 | 155 | 0.0 | 0.0 | 0.00 | 0.88 | 0.87 | 96 | 1011.6 |
| 20260508005045 | 55 | 155 | 0.0 | 0.9 | 0.00 | 0.88 | 0.87 | 96 | 1011.5 |
| 20260508004114 | 55 | 155 | 0.0 | 0.0 | 0.00 | 0.88 | 0.87 | 96 | 1011.5 |
| 20260508003048 | 55 | 155 | 0.0 | 0.0 | 0.00 | 0.88 | 0.87 | 96 | 1011.4 |
| 20260508002043 | 55 | 155 | 0.0 | 1.7 | 0.00 | 0.88 | 0.87 | 96 | 1011.2 |
| 20260508001105 | 55 | 153 | 0.0 | 0.0 | 0.00 | 0.88 | 0.87 | 96 | 1011.1 |
| 20260508000049 | 55 | 153 | 0.0 | 0.0 | 0.00 | 0.88 | 0.87 | 96 | 1011.3 |
| 20260507235027 | 55 | 153 | 0.0 | 0.0 | 0.00 | 0.88 | 0.87 | 96 | 1011.3 |
| 20260507234052 | 55 | 153 | 0.0 | 1.7 | 0.00 | 0.88 | 0.87 | 96 | 1011.0 |
| 20260507233024 | 55 | 103 | 0.0 | 0.0 | 0.00 | 0.88 | 0.87 | 96 | 1010.8 |
| 20260507232032 | 55 | 103 | 0.0 | 0.9 | 0.00 | 0.88 | 0.87 | 96 | 1010.5 |
| 20260507231049 | 55 | 103 | 0.0 | 0.9 | 0.00 | 0.88 | 0.87 | 96 | 1010.5 |
| 20260507225050 | 55 | 109 | 0.0 | 2.6 | 0.00 | 0.88 | 0.87 | 96 | 1010.1 |
| 20260507224028 | 55 | 84 | 0.0 | 0.0 | 0.00 | 0.88 | 0.87 | 96 | 1010.3 |
| 20260507223033 | 55 | 84 | 0.0 | 0.0 | 0.00 | 0.88 | 0.87 | 96 | 1010.6 |
| 20260507222042 | 55 | 84 | 0.0 | 1.7 | 0.00 | 0.88 | 0.87 | 96 | 1010.5 |
| 20260507221126 | 55 | 84 | 0.0 | 1.7 | 0.00 | 0.88 | 0.87 | 96 | 1010.7 |
| 20260507220049 | 55 | 82 | 0.0 | 0.9 | 0.00 | 0.88 | 0.87 | 96 | 1010.6 |
| 20260507215029 | 55 | 96 | 0.9 | 1.7 | 0.00 | 0.88 | 0.87 | 96 | 1010.5 |
| 20260507214036 | 55 | 97 | 0.9 | 1.7 | 0.00 | 0.88 | 0.87 | 96 | 1010.4 |
| 20260507213038 | 55 | 122 | 0.9 | 1.7 | 0.00 | 0.88 | 0.87 | 96 | 1010.3 |
| 20260507212043 | 55 | 94 | 0.0 | 1.7 | 0.00 | 0.88 | 0.87 | 96 | 1010.2 |
| 20260507211103 | 55 | 94 | 0.9 | 1.7 | 0.00 | 0.88 | 0.87 | 96 | 1010.2 |
| 20260507210035 | 55 | 121 | 0.9 | 1.7 | 0.00 | 0.88 | 0.87 | 96 | 1010.3 |
| 20260507205034 | 56 | 84 | 0.9 | 1.7 | 0.00 | 0.88 | 0.87 | 96 | 1010.1 |
| 20260507204033 | 56 | 115 | 0.9 | 1.7 | 0.00 | 0.88 | 0.87 | 96 | 1009.8 |
| 20260507203025 | 56 | 130 | 0.0 | 1.7 | 0.00 | 0.88 | 0.87 | 96 | 1009.9 |
| 20260507202053 | 55 | 87 | 0.9 | 1.7 | 0.00 | 0.88 | 0.87 | 96 | 1009.8 |
| 20260507201112 | 55 | 61 | 0.0 | 1.7 | 0.00 | 0.88 | 0.87 | 96 | 1010.0 |
| 20260507200045 | 55 | 77 | 0.9 | 2.6 | 0.00 | 0.90 | 0.87 | 96 | 1010.2 |
| 20260507195043 | 55 | 109 | 0.9 | 1.7 | 0.00 | 0.90 | 0.87 | 96 | 1010.2 |
| 20260507194042 | 55 | 88 | 0.9 | 2.6 | 0.00 | 0.90 | 0.87 | 96 | 1010.0 |
| 20260507193036 | 55 | 80 | 0.9 | 2.6 | 0.00 | 0.90 | 0.87 | 96 | 1010.3 |
| 20260507192041 | 56 | 84 | 0.9 | 2.6 | 0.00 | 0.90 | 0.87 | 95 | 1010.1 |
| 20260507191101 | 56 | 5 | 0.9 | 5.2 | 0.00 | 0.90 | 0.87 | 96 | 1010.2 |
| 20260507190031 | 57 | 129 | 0.9 | 2.6 | 0.01 | 0.90 | 0.87 | 96 | 1009.7 |
| 20260507185032 | 57 | 69 | 0.9 | 1.7 | 0.01 | 0.90 | 0.87 | 96 | 1009.5 |
| 20260507184031 | 57 | 78 | 0.9 | 2.6 | 0.01 | 0.90 | 0.87 | 96 | 1009.7 |
| 20260507183112 | 57 | 40 | 0.9 | 1.7 | 0.01 | 0.90 | 0.87 | 96 | 1009.5 |
| 20260507182048 | 57 | 70 | 0.9 | 2.6 | 0.01 | 0.90 | 0.87 | 96 | 1009.4 |
| 20260507181109 | 57 | 102 | 0.9 | 1.7 | 0.01 | 0.90 | 0.87 | 95 | 1009.7 |
| 20260507180042 | 57 | 91 | 0.9 | 3.5 | 0.01 | 0.89 | 0.86 | 95 | 1009.5 |
| 20260507175039 | 58 | 86 | 1.7 | 2.6 | 0.02 | 0.89 | 0.86 | 95 | 1009.7 |
| 20260507174042 | 58 | 113 | 0.9 | 1.7 | 0.03 | 0.89 | 0.86 | 95 | 1010.3 |
| 20260507173035 | 58 | 113 | 0.9 | 2.6 | 0.03 | 0.89 | 0.86 | 95 | 1009.8 |
| 20260507172034 | 59 | 70 | 0.9 | 1.7 | 0.04 | 0.89 | 0.86 | 95 | 1009.3 |
| 20260507171112 | 59 | 87 | 0.9 | 2.6 | 0.04 | 0.89 | 0.86 | 95 | 1009.1 |
| 20260507165037 | 60 | 115 | 1.7 | 3.5 | 0.04 | 0.87 | 0.84 | 94 | 1009.3 |
| 20260507164037 | 62 | 111 | 1.7 | 3.5 | 0.04 | 0.86 | 0.83 | 94 | 1009.4 |
| 20260507163057 | 63 | 107 | 0.9 | 3.5 | 0.06 | 0.86 | 0.83 | 95 | 1009.9 |
| 20260507162033 | 65 | 57 | 1.7 | 7.8 | 0.06 | 0.85 | 0.82 | 96 | 1010.1 |
| 20260507161113 | 67 | 159 | 0.9 | 2.6 | 0.07 | 0.85 | 0.82 | 97 | 1009.8 |
| 20260507160046 | 67 | 130 | 0.0 | 2.6 | 0.06 | 0.84 | 0.81 | 97 | 1009.7 |
| 20260507155046 | 67 | 153 | 0.0 | 0.9 | 0.07 | 0.83 | 0.80 | 97 | 1009.5 |
| 20260507154045 | 67 | 153 | 0.0 | 0.0 | 0.09 | 0.82 | 0.79 | 97 | 1009.1 |
| 20260507153039 | 67 | 153 | 0.0 | 0.0 | 0.09 | 0.80 | 0.77 | 97 | 1009.5 |
| 20260507152036 | 67 | 153 | 0.0 | 0.0 | 0.10 | 0.79 | 0.76 | 97 | 1009.5 |
| 20260507151116 | 67 | 153 | 0.0 | 0.0 | 0.10 | 0.78 | 0.75 | 97 | 1009.5 |
| 20260507150027 | 67 | 153 | 0.0 | 0.0 | 0.09 | 0.77 | 0.74 | 97 | 1009.5 |
| 20260507145025 | 67 | 153 | 0.0 | 0.0 | 0.09 | 0.75 | 0.72 | 97 | 1009.7 |
| 20260507144053 | 67 | 150 | 0.0 | 0.9 | 0.08 | 0.73 | 0.70 | 97 | 1009.3 |
| 20260507143046 | 67 | 146 | 0.9 | 1.7 | 0.07 | 0.71 | 0.68 | 97 | 1009.5 |
| 20260507142052 | 67 | 63 | 0.0 | 0.9 | 0.05 | 0.69 | 0.66 | 97 | 1009.7 |
| 20260507141110 | 67 | 94 | 0.0 | 0.9 | 0.05 | 0.68 | 0.65 | 97 | 1009.7 |
| 20260507140044 | 67 | 360 | 0.0 | 2.6 | 0.05 | 0.68 | 0.65 | 97 | 1009.9 |
| 20260507135041 | 66 | 230 | 0.9 | 0.9 | 0.03 | 0.66 | 0.63 | 97 | 1010.2 |
| 20260507134043 | 66 | 108 | 0.0 | 1.7 | 0.02 | 0.65 | 0.62 | 97 | 1010.1 |
| 20260507133036 | 66 | 296 | 0.0 | 1.7 | 0.01 | 0.64 | 0.61 | 97 | 1010.1 |
| 20260507132045 | 66 | 310 | 0.0 | 0.9 | 0.01 | 0.64 | 0.61 | 97 | 1010.0 |
| 20260507131105 | 66 | 276 | 0.0 | 2.6 | 0.00 | 0.63 | 0.60 | 97 | 1009.9 |
| 20260507130041 | 66 | 188 | 0.9 | 1.7 | 0.00 | 0.63 | 0.60 | 97 | 1009.9 |
| 20260507125036 | 66 | 238 | 0.0 | 1.7 | 0.01 | 0.63 | 0.60 | 97 | 1010.0 |
| 20260507124035 | 65 | 231 | 0.0 | 0.0 | 0.07 | 0.63 | 0.60 | 97 | 1009.9 |
| 20260507123032 | 65 | 231 | 0.0 | 0.9 | 0.12 | 0.63 | 0.60 | 97 | 1010.0 |
| 20260507122025 | 65 | 231 | 0.0 | 0.9 | 0.16 | 0.63 | 0.60 | 97 | 1010.0 |
| 20260507121113 | 65 | 231 | 0.0 | 1.7 | 0.22 | 0.63 | 0.60 | 97 | 1010.1 |
| 20260507120049 | 65 | 231 | 0.0 | 1.7 | 0.33 | 0.63 | 0.60 | 97 | 1010.2 |
| 20260507115045 | 65 | 231 | 0.0 | 0.9 | 0.33 | 0.61 | 0.58 | 97 | 1010.4 |
| 20260507114054 | 65 | 121 | 0.0 | 1.7 | 0.34 | 0.56 | 0.53 | 97 | 1010.6 |
| 20260507113038 | 65 | 212 | 0.0 | 0.9 | 0.33 | 0.51 | 0.48 | 96 | 1010.5 |
| 20260507112034 | 65 | 180 | 0.0 | 2.6 | 0.29 | 0.47 | 0.44 | 96 | 1010.4 |
| 20260507111122 | 65 | 242 | 0.9 | 1.7 | 0.22 | 0.39 | 0.36 | 96 | 1010.6 |
| 20260507110044 | 65 | 192 | 0.0 | 0.0 | 0.13 | 0.30 | 0.27 | 96 | 1010.3 |
| 20260507105039 | 65 | 192 | 0.0 | 0.9 | 0.11 | 0.28 | 0.25 | 96 | 1009.9 |
| 20260507104047 | 65 | 192 | 0.0 | 0.0 | 0.05 | 0.22 | 0.19 | 96 | 1010.0 |
| 20260507103024 | 65 | 192 | 0.0 | 0.0 | 0.01 | 0.18 | 0.15 | 96 | 1010.1 |
| 20260507102049 | 65 | 192 | 0.0 | 0.0 | 0.01 | 0.18 | 0.15 | 96 | 1010.1 |
| 20260507101109 | 65 | 192 | 0.0 | 0.0 | 0.00 | 0.17 | 0.14 | 96 | 1009.9 |
| 20260507100033 | 65 | 192 | 0.0 | 0.0 | 0.00 | 0.17 | 0.14 | 96 | 1010.1 |
| 20260507095036 | 65 | 192 | 0.0 | 0.9 | 0.00 | 0.17 | 0.14 | 96 | 1009.9 |
| 20260507094046 | 65 | 192 | 0.0 | 0.9 | 0.01 | 0.17 | 0.14 | 96 | 1010.1 |
| 20260507093052 | 65 | 191 | 0.0 | 0.9 | 0.03 | 0.17 | 0.14 | 96 | 1010.0 |
| 20260507092032 | 65 | 191 | 0.0 | 1.7 | 0.03 | 0.17 | 0.14 | 96 | 1010.0 |
| 20260507091047 | 65 | 266 | 0.0 | 1.7 | 0.03 | 0.17 | 0.14 | 96 | 1010.1 |
| 20260507090048 | 65 | 245 | 0.0 | 1.7 | 0.03 | 0.17 | 0.14 | 96 | 1010.2 |
| 20260507085024 | 65 | 161 | 0.0 | 1.7 | 0.03 | 0.17 | 0.14 | 95 | 1010.1 |
| 20260507084028 | 65 | 234 | 0.0 | 1.7 | 0.02 | 0.16 | 0.13 | 95 | 1010.3 |
| 20260507083035 | 65 | 229 | 0.9 | 2.6 | 0.00 | 0.14 | 0.11 | 95 | 1010.6 |
| 20260507082043 | 65 | 211 | 0.0 | 0.9 | 0.00 | 0.14 | 0.11 | 95 | 1010.5 |
| 20260507081058 | 65 | 207 | 0.0 | 0.0 | 0.00 | 0.14 | 0.11 | 95 | 1010.5 |
| 20260507080042 | 65 | 207 | 0.0 | 0.9 | 0.00 | 0.14 | 0.11 | 95 | 1010.5 |
| 20260507075050 | 65 | 207 | 0.0 | 0.0 | 0.00 | 0.14 | 0.11 | 95 | 1010.7 |
| 20260507074049 | 65 | 207 | 0.0 | 0.0 | 0.00 | 0.14 | 0.11 | 95 | 1010.8 |
| 20260507073042 | 65 | 207 | 0.0 | 0.9 | 0.00 | 0.14 | 0.11 | 95 | 1011.0 |
| 20260507072041 | 65 | 207 | 0.0 | 0.0 | 0.00 | 0.14 | 0.11 | 95 | 1011.0 |
| 20260507071102 | 65 | 207 | 0.0 | 0.9 | 0.00 | 0.14 | 0.11 | 95 | 1011.2 |
| 20260507070101 | 65 | 208 | 0.0 | 1.7 | 0.00 | 0.14 | 0.11 | 95 | 1011.1 |
| 20260507065037 | 65 | 219 | 0.0 | 0.0 | 0.00 | 0.14 | 0.11 | 94 | 1011.5 |
| 20260507064037 | 66 | 228 | 0.0 | 0.0 | 0.00 | 0.14 | 0.11 | 94 | 1011.7 |
| 20260507063032 | 66 | 228 | 0.0 | 0.9 | 0.01 | 0.14 | 0.11 | 94 | 1011.7 |
| 20260507062034 | 66 | 228 | 0.0 | 1.7 | 0.04 | 0.14 | 0.11 | 94 | 1011.6 |
| 20260507061113 | 66 | 213 | 0.0 | 1.7 | 0.04 | 0.14 | 0.11 | 94 | 1011.8 |
| 20260507060044 | 66 | 236 | 0.0 | 0.9 | 0.05 | 0.14 | 0.11 | 94 | 1011.7 |
| 20260507055043 | 66 | 171 | 0.9 | 1.7 | 0.07 | 0.14 | 0.11 | 94 | 1011.7 |
| 20260507054043 | 66 | 121 | 0.0 | 0.9 | 0.09 | 0.14 | 0.11 | 94 | 1011.8 |
| 20260507053037 | 66 | 180 | 0.0 | 0.0 | 0.09 | 0.13 | 0.10 | 93 | 1011.9 |
| 20260507052035 | 67 | 180 | 0.0 | 1.7 | 0.06 | 0.10 | 0.07 | 93 | 1011.9 |
| 20260507051056 | 67 | 206 | 0.9 | 1.7 | 0.06 | 0.10 | 0.07 | 93 | 1012.2 |
| 20260507050027 | 67 | 360 | 0.0 | 3.5 | 0.06 | 0.09 | 0.06 | 93 | 1011.9 |
| 20260507045026 | 67 | 250 | 0.9 | 6.1 | 0.04 | 0.07 | 0.04 | 93 | 1011.5 |
| 20260507044027 | 67 | 205 | 1.7 | 5.2 | 0.02 | 0.05 | 0.02 | 92 | 1012.3 |
| 20260507043024 | 67 | 136 | 0.9 | 1.7 | 0.02 | 0.04 | 0.01 | 92 | 1013.3 |
| 20260507042049 | 67 | 225 | 0.9 | 3.5 | 0.02 | 0.04 | 0.01 | 92 | 1013.4 |
| 20260507041058 | 67 | 88 | 0.0 | 0.9 | 0.02 | 0.04 | 0.01 | 92 | 1013.3 |
| 20260507040048 | 67 | 302 | 0.0 | 0.9 | 0.01 | 0.03 | 0.03 | 91 | 1012.9 |
| 20260507035047 | 67 | 302 | 0.0 | 0.0 | 0.01 | 0.03 | 0.03 | 91 | 1012.3 |
| 20260507033028 | 67 | 302 | 0.0 | 0.9 | 0.00 | 0.02 | 0.02 | 90 | 1012.4 |
| 20260507032057 | 67 | 286 | 0.0 | 0.0 | 0.00 | 0.02 | 0.02 | 90 | 1012.4 |
| 20260507031055 | 67 | 286 | 0.0 | 0.0 | 0.00 | 0.02 | 0.02 | 89 | 1012.2 |
| 20260507030028 | 67 | 286 | 0.0 | 0.0 | 0.00 | 0.02 | 0.02 | 89 | 1012.1 |
| 20260507025028 | 67 | 286 | 0.0 | 0.0 | 0.00 | 0.02 | 0.02 | 88 | 1012.0 |
| 20260507024039 | 67 | 286 | 0.0 | 0.0 | 0.00 | 0.02 | 0.02 | 88 | 1011.9 |
| 20260507023030 | 68 | 286 | 0.0 | 0.0 | 0.00 | 0.02 | 0.02 | 87 | 1011.9 |
| 20260507022037 | 68 | 286 | 0.0 | 0.0 | 0.00 | 0.02 | 0.02 | 87 | 1011.7 |
| 20260507021057 | 68 | 286 | 0.0 | 0.0 | 0.00 | 0.02 | 0.02 | 87 | 1011.7 |
| 20260507020028 | 68 | 286 | 0.0 | 0.0 | 0.00 | 0.02 | 0.02 | 86 | 1011.8 |
| 20260507015034 | 68 | 286 | 0.0 | 0.9 | 0.00 | 0.02 | 0.02 | 86 | 1011.9 |
| 20260507014046 | 69 | 286 | 0.0 | 0.0 | 0.00 | 0.02 | 0.02 | 85 | 1011.5 |
| 20260507013053 | 69 | 286 | 0.0 | 0.0 | 0.00 | 0.02 | 0.02 | 85 | 1011.6 |
| 20260507012025 | 69 | 286 | 0.0 | 0.0 | 0.00 | 0.02 | 0.02 | 84 | 1011.8 |
| 20260507011112 | 69 | 286 | 0.0 | 0.0 | 0.00 | 0.02 | 0.02 | 83 | 1011.7 |